This is the latest recevied weather packets stored in our database for station/object W0WC. If no packets are shown the sender has not sent any weather packets the latest 10 day(s).
| Time | Temp. | Humidity | Pressure | Rain* | Wind** | Luminosity | Snow |
|---|---|---|---|---|---|---|---|
| 1788612074 | 27.78° C | 63% | 1015.8 hPa | 0 mm | - | 47 W/m² | - |
| 1788611769 | 27.78° C | 63% | 1015.6 hPa | 0 mm | - | 40 W/m² | - |
| 1788611467 | 27.22° C | 64% | 1015.7 hPa | 0 mm | - | 33 W/m² | - |
| 1788611161 | 27.22° C | 64% | 1015.6 hPa | 0 mm | - | 27 W/m² | - |
| 1788610861 | 27.22° C | 65% | 1015.6 hPa | 0 mm | - | 23 W/m² | - |
| 1788610555 | 26.67° C | 66% | 1015.7 hPa | 0 mm | - | 18 W/m² | - |
| 1788610251 | 26.67° C | 66% | 1015.5 hPa | 0 mm | - | 14 W/m² | - |
| 1788609949 | 26.67° C | 65% | 1015.4 hPa | 0 mm | - | 11 W/m² | - |
| 1788609645 | 27.22° C | 65% | 1015.4 hPa | 0 mm | - | 7 W/m² | - |
| 1788609344 | 27.22° C | 65% | 1015.4 hPa | 0 mm | - | 5 W/m² | - |
| 1788609039 | 27.22° C | 65% | 1015.4 hPa | 0 mm | - | 3 W/m² | - |
| 1788608738 | 27.22° C | 65% | 1015.3 hPa | 0 mm | - | 1 W/m² | - |
| 1788608437 | 27.22° C | 64% | 1015.3 hPa | 0 mm | - | 1 W/m² | - |
| 1788608132 | 27.22° C | 64% | 1015.3 hPa | 0 mm | - | 0 W/m² | - |
| 1788607828 | 27.22° C | 64% | 1015.2 hPa | 0 mm | - | 0 W/m² | - |
| 1788607523 | 27.22° C | 64% | 1015.3 hPa | 0 mm | - | 0 W/m² | - |
| 1788607218 | 27.22° C | 64% | 1015.4 hPa | 0 mm | - | 0 W/m² | - |
| 1788606913 | 27.22° C | 63% | 1015.1 hPa | 0 mm | - | 0 W/m² | - |
| 1788606612 | 27.22° C | 63% | 1015.2 hPa | 0 mm | - | 0 W/m² | - |
| 1788606312 | 27.22° C | 63% | 1015.1 hPa | 0 mm | - | 0 W/m² | - |
| 1788606007 | 27.78° C | 63% | 1015.3 hPa | 0 mm | - | 0 W/m² | - |
| 1788605701 | 27.78° C | 63% | 1015.2 hPa | 0 mm | - | 0 W/m² | - |
| 1788605400 | 27.78° C | 63% | 1015.1 hPa | 0 mm | - | 0 W/m² | - |
| 1788605096 | 27.78° C | 62% | 1015 hPa | 0 mm | - | 0 W/m² | - |
| 1788604791 | 27.78° C | 62% | 1015 hPa | 0 mm | - | 0 W/m² | - |
* Rain latest hour (hover to see other rain measurements)
** Current wind speed in m/s (hover to see current wind gust speed)